This is the latest recevied weather packets stored in our database for station/object K5KHP. If no packets are shown the sender has not sent any weather packets the latest 10 day(s).
| Time | Temp. | Humidity | Pressure | Rain* | Wind** | Luminosity | Snow |
|---|---|---|---|---|---|---|---|
| 1777457926 | 10.56° C | 79% | 1016.1 hPa | 0 mm | - | 0 W/m² | - |
| 1777457623 | 10.56° C | 80% | 1016 hPa | 0 mm | - | 0 W/m² | - |
| 1777457317 | 10.56° C | 80% | 1016.1 hPa | 0 mm | - | 0 W/m² | - |
| 1777457012 | 10.56° C | 79% | 1015.9 hPa | 0 mm | - | 0 W/m² | - |
| 1777456704 | 11.11° C | 79% | 1015.7 hPa | 0 mm | - | 0 W/m² | - |
| 1777456403 | 10.56° C | 79% | 1015.9 hPa | 0 mm | - | 0 W/m² | - |
| 1777456100 | 11.11° C | 79% | 1015.8 hPa | 0 mm | - | 0 W/m² | - |
| 1777455796 | 11.11° C | 79% | 1015.9 hPa | 0 mm | - | 0 W/m² | - |
| 1777455493 | 11.11° C | 79% | 1016 hPa | 0 mm | - | 0 W/m² | - |
| 1777455189 | 11.11° C | 79% | 1016.1 hPa | 0 mm | - | 0 W/m² | - |
| 1777454886 | 11.11° C | 78% | 1015.8 hPa | 0 mm | - | 0 W/m² | - |
| 1777454583 | 11.11° C | 78% | 1015.9 hPa | 0 mm | - | 0 W/m² | - |
| 1777454278 | 11.11° C | 78% | 1016 hPa | 0 mm | - | 0 W/m² | - |
| 1777453976 | 11.11° C | 78% | 1015.8 hPa | 0 mm | - | 0 W/m² | - |
| 1777453673 | 11.11° C | 78% | 1015.9 hPa | 0 mm | - | 0 W/m² | - |
| 1777453370 | 11.67° C | 78% | 1015.9 hPa | 0 mm | - | 0 W/m² | - |
| 1777453067 | 11.67° C | 77% | 1015.7 hPa | 0 mm | - | 0 W/m² | - |
| 1777452764 | 11.11° C | 77% | 1016 hPa | 0 mm | - | 0 W/m² | - |
| 1777452460 | 11.11° C | 78% | 1016.2 hPa | 0 mm | - | 0 W/m² | - |
| 1777452156 | 11.11° C | 78% | 1015.9 hPa | 0 mm | - | 0 W/m² | - |
| 1777451851 | 11.67° C | 77% | 1016.1 hPa | 0 mm | - | 0 W/m² | - |
| 1777451548 | 11.67° C | 77% | 1016.2 hPa | 0 mm | - | 0 W/m² | - |
| 1777451243 | 11.67° C | 76% | 1016.3 hPa | 0 mm | - | 0 W/m² | - |
| 1777450939 | 11.67° C | 76% | 1016.5 hPa | 0 mm | - | 0 W/m² | - |
| 1777450635 | 12.22° C | 76% | 1016.5 hPa | 0 mm | - | 0 W/m² | - |
* Rain latest hour (hover to see other rain measurements)
** Current wind speed in m/s (hover to see current wind gust speed)